Powrót do katalogu

STARLINK-2194

AktywnyŁącznośćVLEO
NORAD 47771·PAYLOAD·🇺🇸 United States

Wystrzelony Mar 4, 2021 z Cape Canaveral Space Force Station

Loading…

Następne Przeloty (najbliższe 24 godziny)

TLE

ŚwieżeSource: CelesTrak SupGP

Epoka: Sep 14, 2026, 20:43 UTC

1 47771C 21017BB  26257.86368056  .00092896  00000+0  26508-2 0  2574
2 47771  53.1582  43.0366 0001005   5.2091 149.4260 15.35435639    18

Śledź STARLINK-2194 w czasie rzeczywistym z AllMySat

Download on the App Store